GFSGL_prec_pwat_096.txt.gz
Precipitable_Water
1.46 1.44 1.42 1.30 1.37 1.44 1.51 1.69 1.86 1.81 1.80 2.03 1.98 1.92 1.73 1.61 1.72 1.74 1.65 1.57 1.48 1.25 1.20 1.15 1.21 1.34 1.36 1.42 1.45 1.42 1.43 1.39 1.17 1.28 1.43 1.47 1.46 1.38 1.46 1.45 1.43 1.48 1.50
1.72 1.63 1.61 1.57 1.54 1.46 1.43 1.56 1.75 1.74 1.79 1.79 1.76 1.82 1.73 1.71 1.75 1.70 1.64 1.67 1.73 1.59 1.40 1.23 1.15 1.18 1.15 1.26 1.24 1.19 1.18 1.24 1.19 1.03 1.26 1.34 1.33 1.41 1.49 1.32 1.39 1.49 1.45
1.99 1.78 1.75 1.70 1.66 1.56 1.55 1.52 1.66 1.63 1.59 1.59 1.56 1.61 1.63 1.65 1.80 1.81 1.85 1.84 1.68 1.61 1.57 1.37 1.28 1.25 1.17 1.16 1.13 1.18 1.17 1.15 1.20 1.08 1.03 1.17 1.20 1.22 1.29 1.43 1.39 1.37 1.35
2.14 1.96 1.85 1.84 1.83 1.78 1.78 1.76 1.70 1.73 1.63 1.53 1.50 1.49 1.47 1.54 1.62 1.79 1.83 1.75 1.74 1.75 1.66 1.56 1.52 1.41 1.32 1.28 1.31 1.30 1.27 1.19 1.13 1.07 1.03 1.02 1.09 1.20 1.36 1.28 1.12 1.09 1.00
1.95 1.95 1.90 1.94 1.93 1.91 1.83 1.79 1.83 1.83 1.78 1.74 1.66 1.63 1.61 1.55 1.50 1.55 1.67 1.65 1.61 1.62 1.68 1.64 1.62 1.65 1.63 1.53 1.41 1.37 1.32 1.24 1.18 1.10 1.01 1.09 1.04 0.99 0.92 0.98 0.93 0.92 0.92
1.78 1.83 1.92 1.89 1.92 1.95 1.95 1.88 1.94 1.99 1.95 1.91 1.81 1.72 1.66 1.65 1.68 1.64 1.63 1.60 1.57 1.57 1.55 1.63 1.68 1.64 1.63 1.56 1.52 1.49 1.46 1.26 1.22 1.21 1.14 1.04 0.95 0.96 1.00 0.96 0.92 0.87 0.78
1.69 1.73 1.82 1.80 1.84 1.92 2.02 1.95 1.92 1.86 1.89 1.90 1.92 1.84 1.79 1.78 1.82 1.80 1.80 1.73 1.65 1.66 1.57 1.53 1.49 1.53 1.55 1.59 1.60 1.51 1.40 1.38 1.36 1.30 1.13 1.11 1.07 1.12 1.13 1.01 1.01 1.02 0.96
1.58 1.66 1.74 1.85 1.86 1.76 1.90 1.86 1.83 1.87 1.89 1.86 1.91 1.93 1.85 1.86 1.87 1.92 1.93 1.86 1.74 1.66 1.65 1.64 1.58 1.54 1.56 1.52 1.44 1.38 1.34 1.35 1.35 1.40 1.41 1.30 1.25 1.22 1.21 1.19 1.12 1.06 1.09
1.14 1.28 1.45 1.55 1.71 1.81 1.75 1.72 1.76 1.80 1.79 1.82 1.85 1.84 1.84 1.85 1.91 1.87 1.88 1.81 1.78 1.82 1.82 1.74 1.69 1.62 1.60 1.58 1.52 1.39 1.35 1.35 1.48 1.44 1.40 1.42 1.42 1.43 1.42 1.32 1.14 1.06 0.90
0.85 0.90 1.02 1.10 1.18 1.29 1.46 1.55 1.63 1.70 1.74 1.79 1.79 1.83 1.83 1.79 1.85 1.89 1.94 1.98 1.81 1.80 1.84 1.92 1.93 1.82 1.74 1.70 1.58 1.47 1.31 1.29 1.39 1.37 1.39 1.40 1.44 1.42 1.47 1.46 1.33 1.09 1.05
0.82 0.81 0.82 0.85 0.85 0.90 0.95 1.02 1.10 1.23 1.40 1.54 1.64 1.78 1.87 1.84 1.85 1.92 1.94 1.93 1.93 1.95 1.89 1.85 1.90 1.90 1.88 1.86 1.80 1.67 1.53 1.56 1.45 1.40 1.36 1.36 1.38 1.36 1.37 1.43 1.46 1.40 1.25
0.63 0.59 0.60 0.63 0.67 0.69 0.72 0.76 0.80 0.88 0.96 1.07 1.26 1.47 1.67 1.71 1.78 1.75 1.74 1.84 1.89 1.84 1.78 1.81 1.94 1.97 1.97 1.99 1.93 1.89 1.90 1.78 1.63 1.54 1.46 1.37 1.34 1.35 1.44 1.53 1.56 1.56 1.55
0.58 0.58 0.57 0.57 0.57 0.57 0.53 0.53 0.59 0.66 0.69 0.71 0.79 0.86 0.95 1.07 1.19 1.31 1.41 1.45 1.50 1.58 1.69 1.75 1.77 1.79 1.83 1.87 2.01 2.00 1.94 1.89 1.72 1.60 1.57 1.51 1.54 1.57 1.58 1.53 1.56 1.56 1.54
0.46 0.48 0.53 0.53 0.55 0.57 0.58 0.56 0.54 0.54 0.53 0.53 0.56 0.58 0.66 0.74 0.83 0.91 1.00 1.10 1.19 1.30 1.41 1.51 1.55 1.63 1.71 1.72 1.75 1.80 1.84 1.93 1.92 1.82 1.72 1.72 1.74 1.63 1.50 1.50 1.42 1.40 1.35
0.40 0.40 0.39 0.40 0.43 0.45 0.51 0.55 0.56 0.61 0.59 0.54 0.54 0.54 0.52 0.52 0.58 0.67 0.72 0.78 0.88 0.96 1.04 1.14 1.25 1.31 1.36 1.41 1.47 1.58 1.67 1.74 1.79 1.92 1.90 1.82 1.80 1.78 1.69 1.67 1.53 1.45 1.34
0.37 0.37 0.37 0.36 0.35 0.36 0.35 0.36 0.46 0.49 0.55 0.60 0.63 0.61 0.60 0.63 0.63 0.60 0.58 0.59 0.63 0.69 0.71 0.75 0.83 0.95 1.05 1.19 1.31 1.35 1.42 1.50 1.61 1.74 1.82 1.90 1.86 1.83 1.83 1.85 1.81 1.71 1.57
0.34 0.34 0.33 0.32 0.31 0.31 0.32 0.32 0.28 0.35 0.42 0.44 0.47 0.51 0.55 0.54 0.57 0.60 0.61 0.60 0.61 0.58 0.52 0.54 0.62 0.74 0.83 0.97 1.11 1.23 1.34 1.44 1.56 1.63 1.74 1.75 1.85 1.92 1.88 1.85 1.84 1.89 1.88
0.35 0.35 0.33 0.33 0.32 0.32 0.31 0.31 0.32 0.30 0.28 0.30 0.38 0.40 0.43 0.47 0.49 0.52 0.54 0.57 0.53 0.57 0.56 0.58 0.58 0.66 0.75 0.82 0.89 0.96 1.05 1.10 1.15 1.25 1.35 1.48 1.69 1.81 1.85 1.91 1.94 1.88 1.93
0.36 0.36 0.36 0.35 0.34 0.34 0.34 0.33 0.34 0.33 0.32 0.32 0.34 0.36 0.39 0.40 0.41 0.43 0.47 0.47 0.48 0.52 0.59 0.64 0.71 0.76 0.72 0.70 0.71 0.74 0.79 0.83 0.91 1.00 1.08 1.19 1.35 1.66 1.77 1.76 1.81 1.86 1.90
0.37 0.38 0.37 0.36 0.35 0.34 0.33 0.32 0.31 0.30 0.30 0.30 0.30 0.32 0.36 0.36 0.33 0.35 0.39 0.44 0.47 0.53 0.59 0.66 0.69 0.70 0.68 0.65 0.64 0.64 0.63 0.66 0.74 0.86 0.93 1.00 1.09 1.26 1.54 1.70 1.73 1.74 1.77
0.41 0.39 0.39 0.37 0.36 0.34 0.33 0.32 0.32 0.31 0.30 0.30 0.31 0.34 0.35 0.34 0.33 0.34 0.36 0.39 0.46 0.52 0.57 0.61 0.66 0.66 0.65 0.64 0.64 0.62 0.59 0.56 0.60 0.70 0.84 0.95 1.00 1.00 1.12 1.49 1.65 1.72 1.78
0.46 0.40 0.38 0.37 0.36 0.34 0.33 0.32 0.32 0.32 0.32 0.31 0.32 0.34 0.35 0.34 0.35 0.36 0.38 0.39 0.43 0.47 0.51 0.55 0.60 0.62 0.63 0.63 0.63 0.61 0.58 0.53 0.53 0.58 0.68 0.81 0.94 0.95 0.99 1.10 1.33 1.59 1.65
0.46 0.41 0.39 0.39 0.39 0.39 0.36 0.34 0.32 0.31 0.32 0.33 0.33 0.33 0.34 0.35 0.36 0.37 0.37 0.40 0.44 0.46 0.50 0.57 0.57 0.56 0.59 0.61 0.62 0.62 0.58 0.56 0.55 0.56 0.57 0.65 0.77 0.91 0.96 0.96 1.07 1.23 1.52
0.46 0.43 0.40 0.40 0.39 0.39 0.37 0.35 0.33 0.33 0.34 0.35 0.35 0.35 0.36 0.37 0.38 0.38 0.40 0.42 0.45 0.47 0.50 0.51 0.52 0.53 0.55 0.58 0.59 0.60 0.61 0.63 0.62 0.56 0.56 0.57 0.63 0.76 0.93 0.97 0.98 1.15 1.37
0.46 0.43 0.40 0.41 0.41 0.39 0.38 0.36 0.33 0.32 0.34 0.35 0.36 0.37 0.38 0.39 0.39 0.40 0.42 0.44 0.46 0.47 0.49 0.52 0.53 0.53 0.53 0.55 0.56 0.57 0.58 0.58 0.58 0.58 0.55 0.55 0.59 0.67 0.79 0.91 0.97 1.03 1.22
0.46 0.45 0.44 0.44 0.44 0.44 0.41 0.38 0.35 0.35 0.35 0.38 0.38 0.39 0.40 0.40 0.42 0.43 0.44 0.45 0.46 0.47 0.49 0.51 0.53 0.55 0.55 0.56 0.57 0.58 0.58 0.57 0.57 0.58 0.57 0.54 0.56 0.65 0.75 0.86 0.94 1.00 1.11

GFSGL_prec_pwat_102.txt.gz
Precipitable_Water
1.66 1.41 1.24 1.24 1.30 1.62 1.75 1.87 1.89 1.91 1.95 1.94 1.92 1.83 1.74 1.73 1.65 1.61 1.59 1.49 1.34 1.26 1.23 1.22 1.21 1.32 1.32 1.34 1.43 1.47 1.45 1.39 1.17 1.24 1.34 1.41 1.27 1.27 1.27 1.34 1.42 1.44 1.39
1.99 1.70 1.34 1.34 1.38 1.55 1.76 1.74 1.88 1.90 1.96 1.93 1.88 1.87 1.83 1.84 1.74 1.64 1.61 1.69 1.53 1.48 1.35 1.31 1.26 1.27 1.17 1.25 1.25 1.25 1.27 1.29 1.13 0.98 1.10 1.10 1.11 1.17 1.21 1.20 1.22 1.27 1.23
2.01 1.98 1.63 1.44 1.37 1.48 1.63 1.66 1.72 1.75 1.90 1.97 2.00 1.96 1.94 1.91 1.77 1.70 1.70 1.70 1.74 1.73 1.66 1.58 1.48 1.41 1.29 1.29 1.27 1.23 1.29 1.24 1.21 1.14 1.08 1.23 1.21 1.23 1.14 1.16 1.15 1.18 1.23
2.02 2.06 1.97 1.66 1.48 1.48 1.48 1.56 1.65 1.72 1.67 1.80 1.79 1.91 1.95 1.82 1.73 1.70 1.70 1.72 1.78 1.84 1.82 1.75 1.65 1.54 1.44 1.42 1.42 1.39 1.37 1.30 1.31 1.24 1.21 1.19 1.19 1.28 1.30 1.14 1.05 1.15 1.06
2.06 1.98 2.02 1.96 1.71 1.60 1.62 1.60 1.61 1.70 1.70 1.76 1.79 1.76 1.75 1.73 1.78 1.76 1.70 1.62 1.66 1.73 1.80 1.79 1.72 1.72 1.69 1.64 1.52 1.44 1.42 1.28 1.26 1.26 1.18 1.16 1.11 1.12 1.12 1.27 1.19 1.12 1.02
1.93 1.95 1.98 2.01 1.95 1.78 1.74 1.77 1.70 1.64 1.70 1.68 1.70 1.70 1.63 1.66 1.81 1.82 1.77 1.68 1.63 1.60 1.59 1.60 1.63 1.65 1.67 1.72 1.72 1.69 1.67 1.49 1.29 1.34 1.24 1.10 1.10 1.14 1.24 1.21 1.13 0.98 0.80
1.71 1.83 1.85 1.80 1.75 1.85 1.78 1.72 1.77 1.69 1.71 1.72 1.70 1.75 1.72 1.76 1.76 1.79 1.79 1.74 1.71 1.67 1.67 1.68 1.63 1.65 1.67 1.62 1.64 1.66 1.60 1.62 1.63 1.49 1.24 1.16 1.10 1.17 1.22 1.11 1.11 1.08 1.04
1.55 1.59 1.68 1.77 1.75 1.83 1.88 1.70 1.69 1.73 1.77 1.72 1.74 1.78 1.81 1.84 1.83 1.80 1.81 1.82 1.82 1.83 1.78 1.82 1.79 1.72 1.78 1.71 1.62 1.54 1.56 1.58 1.57 1.57 1.50 1.43 1.45 1.45 1.43 1.41 1.34 1.30 1.29
1.42 1.50 1.49 1.53 1.53 1.53 1.59 1.55 1.64 1.67 1.75 1.77 1.82 1.88 1.91 1.81 1.76 1.80 1.85 1.83 1.79 1.75 1.84 1.90 1.91 1.88 1.80 1.80 1.72 1.64 1.60 1.61 1.74 1.72 1.68 1.66 1.64 1.62 1.62 1.52 1.33 1.29 1.15
1.26 1.29 1.32 1.31 1.35 1.38 1.45 1.46 1.56 1.57 1.65 1.87 1.85 1.88 1.86 1.74 1.69 1.72 1.73 1.70 1.63 1.64 1.72 1.75 1.84 1.86 1.85 1.87 1.84 1.78 1.62 1.66 1.72 1.71 1.69 1.68 1.72 1.68 1.68 1.62 1.50 1.29 1.29
0.99 1.01 1.04 1.07 1.08 1.13 1.14 1.21 1.24 1.44 1.55 1.60 1.67 1.58 1.63 1.62 1.55 1.62 1.62 1.62 1.58 1.57 1.56 1.57 1.65 1.65 1.66 1.69 1.72 1.72 1.73 1.81 1.81 1.79 1.75 1.74 1.74 1.70 1.69 1.68 1.65 1.54 1.37
0.83 0.84 0.85 0.86 0.86 0.84 0.82 0.83 0.89 0.90 0.99 1.22 1.37 1.40 1.46 1.44 1.47 1.47 1.51 1.52 1.54 1.51 1.47 1.48 1.49 1.53 1.57 1.65 1.72 1.80 1.84 1.80 1.72 1.64 1.61 1.62 1.68 1.70 1.78 1.87 1.85 1.76 1.76
0.66 0.65 0.65 0.66 0.66 0.68 0.67 0.68 0.68 0.73 0.77 0.80 0.83 0.90 1.07 1.17 1.26 1.31 1.35 1.35 1.38 1.36 1.38 1.38 1.36 1.37 1.42 1.44 1.49 1.56 1.62 1.65 1.61 1.54 1.53 1.55 1.63 1.72 1.84 1.88 1.98 2.01 1.90
0.59 0.58 0.60 0.60 0.60 0.61 0.61 0.60 0.57 0.55 0.51 0.52 0.54 0.57 0.62 0.67 0.72 0.76 0.80 0.86 0.95 1.02 1.09 1.09 1.14 1.18 1.24 1.32 1.33 1.37 1.43 1.51 1.53 1.50 1.51 1.58 1.64 1.62 1.60 1.73 1.70 1.80 1.80
0.53 0.51 0.48 0.46 0.46 0.47 0.50 0.50 0.51 0.55 0.56 0.53 0.51 0.51 0.49 0.49 0.52 0.55 0.52 0.52 0.53 0.55 0.57 0.61 0.65 0.69 0.70 0.76 0.86 0.95 1.05 1.17 1.19 1.27 1.31 1.31 1.30 1.33 1.38 1.49 1.54 1.60 1.61
0.40 0.39 0.39 0.38 0.38 0.38 0.38 0.38 0.43 0.43 0.43 0.42 0.43 0.43 0.44 0.44 0.42 0.40 0.40 0.41 0.41 0.44 0.43 0.42 0.44 0.49 0.51 0.56 0.59 0.65 0.71 0.69 0.73 0.80 0.84 0.87 0.88 0.93 1.00 1.14 1.27 1.30 1.33
0.35 0.34 0.33 0.32 0.31 0.30 0.30 0.29 0.27 0.32 0.36 0.34 0.34 0.35 0.34 0.33 0.33 0.33 0.34 0.35 0.37 0.37 0.34 0.37 0.40 0.43 0.50 0.54 0.58 0.58 0.56 0.61 0.66 0.63 0.59 0.61 0.64 0.66 0.68 0.71 0.81 0.98 1.05
0.35 0.33 0.31 0.31 0.30 0.29 0.29 0.28 0.28 0.26 0.26 0.28 0.33 0.33 0.33 0.32 0.32 0.32 0.32 0.33 0.30 0.33 0.33 0.34 0.36 0.43 0.46 0.48 0.50 0.52 0.53 0.56 0.56 0.55 0.54 0.56 0.58 0.55 0.53 0.55 0.58 0.58 0.69
0.34 0.32 0.32 0.33 0.32 0.31 0.31 0.29 0.28 0.27 0.26 0.26 0.28 0.30 0.32 0.32 0.32 0.32 0.33 0.31 0.30 0.30 0.32 0.33 0.34 0.35 0.39 0.44 0.48 0.52 0.53 0.53 0.54 0.52 0.51 0.52 0.54 0.52 0.49 0.51 0.52 0.54 0.54
0.35 0.35 0.34 0.33 0.32 0.32 0.31 0.31 0.30 0.29 0.29 0.28 0.28 0.28 0.31 0.30 0.28 0.28 0.30 0.31 0.30 0.31 0.32 0.32 0.33 0.35 0.36 0.38 0.39 0.42 0.45 0.47 0.47 0.48 0.48 0.48 0.49 0.49 0.48 0.48 0.49 0.47 0.49
0.38 0.38 0.37 0.36 0.35 0.35 0.35 0.34 0.33 0.31 0.30 0.29 0.30 0.32 0.32 0.30 0.29 0.29 0.30 0.31 0.31 0.30 0.31 0.33 0.34 0.35 0.37 0.38 0.40 0.42 0.46 0.46 0.46 0.45 0.43 0.43 0.45 0.44 0.46 0.46 0.45 0.47 0.47
0.44 0.42 0.40 0.38 0.40 0.39 0.39 0.39 0.37 0.35 0.34 0.32 0.31 0.31 0.31 0.30 0.30 0.29 0.30 0.30 0.31 0.33 0.33 0.33 0.34 0.35 0.36 0.38 0.38 0.39 0.39 0.40 0.43 0.43 0.42 0.42 0.41 0.41 0.42 0.42 0.43 0.44 0.44
0.53 0.48 0.45 0.43 0.43 0.44 0.43 0.43 0.41 0.39 0.37 0.36 0.34 0.32 0.30 0.29 0.30 0.30 0.30 0.31 0.32 0.32 0.34 0.34 0.34 0.35 0.37 0.38 0.40 0.40 0.39 0.39 0.43 0.45 0.43 0.41 0.41 0.40 0.41 0.40 0.39 0.39 0.40
0.62 0.56 0.51 0.48 0.46 0.45 0.45 0.44 0.43 0.41 0.40 0.37 0.35 0.33 0.29 0.29 0.30 0.31 0.32 0.33 0.33 0.34 0.35 0.35 0.36 0.36 0.37 0.39 0.41 0.42 0.43 0.44 0.46 0.45 0.44 0.43 0.41 0.42 0.41 0.40 0.39 0.39 0.40
0.65 0.58 0.51 0.49 0.48 0.47 0.46 0.45 0.44 0.44 0.42 0.40 0.38 0.36 0.33 0.31 0.30 0.32 0.34 0.36 0.37 0.37 0.37 0.39 0.40 0.40 0.41 0.42 0.43 0.45 0.46 0.46 0.46 0.46 0.45 0.44 0.42 0.42 0.42 0.41 0.41 0.41 0.42
0.68 0.63 0.55 0.51 0.50 0.49 0.48 0.46 0.45 0.45 0.43 0.43 0.42 0.40 0.36 0.32 0.32 0.34 0.36 0.39 0.40 0.41 0.41 0.41 0.43 0.44 0.45 0.46 0.47 0.48 0.49 0.49 0.49 0.50 0.50 0.47 0.45 0.44 0.44 0.44 0.43 0.43 0.43

GFSGL_prec_pwat_105.txt.gz
Precipitable_Water
1.75 1.60 1.43 1.39 1.37 1.53 1.76 1.93 1.96 1.88 1.87 1.86 1.85 1.83 1.78 1.76 1.66 1.57 1.53 1.53 1.38 1.30 1.24 1.19 1.23 1.34 1.33 1.41 1.44 1.46 1.40 1.41 1.20 1.26 1.34 1.29 1.22 1.26 1.23 1.28 1.31 1.27 1.23
1.81 1.78 1.63 1.49 1.44 1.36 1.58 1.88 1.98 1.90 1.97 1.95 2.00 1.96 1.89 1.82 1.78 1.62 1.56 1.61 1.53 1.46 1.42 1.29 1.28 1.30 1.25 1.22 1.22 1.24 1.25 1.31 1.22 1.08 1.20 1.18 1.21 1.30 1.28 1.27 1.25 1.33 1.30
2.00 1.93 1.89 1.62 1.45 1.39 1.40 1.66 1.87 1.86 1.96 1.95 1.96 1.91 1.85 1.91 1.83 1.78 1.69 1.66 1.69 1.64 1.67 1.55 1.52 1.46 1.39 1.37 1.33 1.30 1.21 1.26 1.27 1.17 1.14 1.31 1.31 1.34 1.28 1.33 1.28 1.28 1.27
2.06 2.00 2.00 1.99 1.71 1.50 1.45 1.59 1.75 1.79 1.81 1.84 1.93 1.99 2.02 2.00 1.98 1.89 1.77 1.71 1.75 1.82 1.87 1.79 1.73 1.62 1.54 1.49 1.42 1.41 1.44 1.39 1.39 1.33 1.25 1.22 1.28 1.32 1.30 1.19 1.12 1.25 1.15
2.02 2.08 2.01 2.07 1.99 1.61 1.47 1.52 1.58 1.66 1.72 1.75 1.73 1.85 1.90 1.97 1.97 1.83 1.78 1.71 1.70 1.72 1.79 1.90 1.88 1.82 1.79 1.69 1.62 1.57 1.54 1.46 1.44 1.33 1.27 1.25 1.25 1.19 1.13 1.19 1.12 1.10 1.05
2.00 2.02 2.04 2.07 2.05 1.90 1.77 1.57 1.57 1.57 1.65 1.75 1.74 1.77 1.81 1.83 1.81 1.79 1.83 1.78 1.75 1.67 1.61 1.72 1.82 1.77 1.70 1.68 1.70 1.71 1.71 1.58 1.51 1.49 1.40 1.32 1.27 1.24 1.22 1.16 1.12 1.00 0.86
1.78 1.93 2.00 1.99 2.01 1.95 1.88 1.73 1.63 1.67 1.69 1.66 1.70 1.72 1.74 1.75 1.74 1.73 1.74 1.80 1.77 1.76 1.74 1.74 1.76 1.82 1.77 1.68 1.73 1.67 1.63 1.63 1.57 1.47 1.33 1.31 1.35 1.39 1.39 1.29 1.29 1.27 1.20
1.69 1.66 1.77 1.80 1.75 1.78 1.76 1.81 1.79 1.69 1.68 1.70 1.72 1.74 1.68 1.67 1.74 1.79 1.76 1.79 1.79 1.78 1.78 1.78 1.78 1.78 1.77 1.75 1.74 1.71 1.69 1.70 1.74 1.70 1.63 1.59 1.64 1.68 1.66 1.60 1.53 1.49 1.48
1.59 1.59 1.62 1.59 1.60 1.62 1.59 1.70 1.78 1.81 1.70 1.73 1.81 1.74 1.66 1.62 1.66 1.74 1.78 1.72 1.69 1.68 1.74 1.73 1.74 1.69 1.69 1.75 1.76 1.69 1.71 1.76 1.90 1.84 1.82 1.81 1.77 1.71 1.70 1.61 1.46 1.43 1.29
1.48 1.51 1.51 1.51 1.52 1.38 1.43 1.48 1.54 1.61 1.70 1.75 1.67 1.69 1.63 1.63 1.63 1.67 1.71 1.68 1.60 1.61 1.64 1.66 1.59 1.56 1.59 1.62 1.68 1.67 1.58 1.70 1.77 1.83 1.85 1.87 1.91 1.91 1.86 1.78 1.68 1.46 1.45
1.32 1.34 1.33 1.31 1.25 1.32 1.30 1.30 1.41 1.46 1.49 1.49 1.51 1.59 1.58 1.62 1.61 1.60 1.61 1.57 1.55 1.51 1.51 1.52 1.51 1.48 1.47 1.48 1.52 1.58 1.60 1.65 1.66 1.70 1.73 1.74 1.75 1.74 1.78 1.89 1.96 1.85 1.68
1.01 0.98 1.01 1.02 1.02 1.02 1.03 1.05 1.06 1.14 1.13 1.13 1.17 1.25 1.39 1.50 1.47 1.46 1.46 1.46 1.45 1.44 1.40 1.42 1.42 1.39 1.41 1.43 1.41 1.42 1.50 1.56 1.62 1.65 1.67 1.68 1.67 1.69 1.76 1.83 1.88 1.91 1.97
0.72 0.72 0.72 0.75 0.77 0.80 0.79 0.81 0.84 0.86 0.86 0.86 0.87 0.86 1.06 1.20 1.25 1.24 1.24 1.25 1.26 1.27 1.32 1.38 1.40 1.38 1.35 1.33 1.36 1.36 1.41 1.50 1.54 1.53 1.54 1.60 1.68 1.70 1.72 1.71 1.74 1.81 1.85
0.71 0.70 0.70 0.69 0.69 0.70 0.69 0.67 0.64 0.62 0.61 0.59 0.57 0.58 0.62 0.64 0.65 0.68 0.73 0.79 0.79 0.79 0.87 0.94 1.02 1.08 1.09 1.10 1.07 1.09 1.16 1.25 1.25 1.29 1.31 1.36 1.41 1.40 1.35 1.39 1.33 1.34 1.33
0.56 0.57 0.59 0.61 0.61 0.60 0.62 0.62 0.60 0.59 0.58 0.54 0.54 0.53 0.49 0.45 0.44 0.45 0.42 0.41 0.43 0.45 0.49 0.54 0.55 0.58 0.60 0.66 0.73 0.82 0.90 0.94 0.86 0.86 0.85 0.86 0.88 0.93 0.95 1.03 1.03 1.05 1.04
0.50 0.51 0.51 0.49 0.49 0.49 0.47 0.46 0.47 0.43 0.43 0.43 0.42 0.41 0.41 0.38 0.37 0.36 0.35 0.37 0.38 0.39 0.40 0.37 0.38 0.45 0.50 0.53 0.54 0.58 0.65 0.69 0.71 0.69 0.67 0.66 0.63 0.63 0.62 0.64 0.69 0.71 0.70
0.50 0.50 0.47 0.45 0.42 0.38 0.36 0.34 0.32 0.35 0.36 0.36 0.36 0.35 0.35 0.34 0.34 0.34 0.34 0.35 0.35 0.36 0.34 0.36 0.37 0.41 0.44 0.48 0.50 0.53 0.52 0.57 0.61 0.59 0.57 0.57 0.58 0.58 0.55 0.55 0.58 0.56 0.53
0.47 0.44 0.41 0.38 0.36 0.35 0.34 0.33 0.32 0.31 0.29 0.31 0.34 0.34 0.33 0.33 0.33 0.32 0.33 0.35 0.33 0.34 0.33 0.33 0.33 0.35 0.36 0.39 0.42 0.44 0.47 0.49 0.52 0.53 0.52 0.53 0.54 0.52 0.48 0.45 0.47 0.48 0.49
0.39 0.38 0.38 0.37 0.35 0.34 0.33 0.32 0.31 0.30 0.30 0.30 0.31 0.33 0.33 0.33 0.33 0.33 0.34 0.32 0.31 0.31 0.32 0.33 0.35 0.35 0.35 0.37 0.39 0.39 0.40 0.41 0.44 0.47 0.49 0.47 0.48 0.48 0.45 0.45 0.44 0.43 0.44
0.37 0.37 0.37 0.36 0.35 0.34 0.34 0.33 0.31 0.30 0.30 0.30 0.30 0.30 0.32 0.33 0.30 0.30 0.32 0.31 0.30 0.30 0.30 0.31 0.32 0.33 0.35 0.37 0.38 0.40 0.39 0.40 0.41 0.43 0.46 0.47 0.45 0.43 0.41 0.41 0.41 0.39 0.38
0.38 0.38 0.37 0.37 0.35 0.35 0.35 0.33 0.33 0.33 0.33 0.33 0.33 0.34 0.33 0.32 0.31 0.31 0.31 0.32 0.32 0.32 0.32 0.33 0.33 0.33 0.34 0.34 0.35 0.35 0.34 0.36 0.38 0.40 0.42 0.44 0.45 0.42 0.42 0.41 0.40 0.39 0.39
0.43 0.41 0.40 0.39 0.39 0.39 0.39 0.39 0.38 0.38 0.38 0.37 0.37 0.37 0.35 0.34 0.33 0.33 0.33 0.33 0.34 0.35 0.35 0.34 0.34 0.34 0.35 0.36 0.36 0.36 0.35 0.35 0.36 0.38 0.39 0.39 0.40 0.40 0.41 0.39 0.38 0.38 0.38
0.54 0.50 0.46 0.44 0.44 0.44 0.44 0.45 0.44 0.44 0.43 0.42 0.40 0.39 0.37 0.34 0.33 0.33 0.33 0.34 0.35 0.35 0.36 0.36 0.35 0.35 0.37 0.37 0.38 0.38 0.37 0.37 0.39 0.40 0.39 0.39 0.40 0.40 0.40 0.39 0.38 0.38 0.37
0.67 0.64 0.59 0.54 0.51 0.50 0.50 0.50 0.50 0.49 0.48 0.46 0.45 0.42 0.40 0.38 0.35 0.34 0.34 0.34 0.35 0.36 0.37 0.37 0.36 0.36 0.37 0.38 0.39 0.40 0.40 0.42 0.43 0.42 0.41 0.40 0.38 0.39 0.40 0.40 0.40 0.40 0.40
0.70 0.68 0.65 0.61 0.54 0.52 0.52 0.51 0.51 0.51 0.49 0.47 0.45 0.44 0.42 0.41 0.37 0.35 0.35 0.36 0.35 0.35 0.35 0.37 0.38 0.38 0.39 0.39 0.40 0.42 0.43 0.44 0.43 0.44 0.44 0.44 0.42 0.42 0.42 0.42 0.42 0.42 0.42
0.78 0.72 0.68 0.64 0.57 0.54 0.53 0.53 0.53 0.52 0.50 0.48 0.46 0.45 0.44 0.42 0.40 0.38 0.38 0.38 0.37 0.37 0.38 0.39 0.39 0.40 0.41 0.42 0.43 0.45 0.46 0.47 0.47 0.48 0.49 0.48 0.47 0.47 0.48 0.47 0.47 0.47 0.46

GFSGL_prec_pwat_111.txt.gz
Precipitable_Water
1.59 1.55 1.45 1.41 1.45 1.55 1.67 1.97 2.00 1.95 1.94 1.88 1.81 1.85 1.89 1.86 1.81 1.66 1.61 1.78 1.51 1.46 1.46 1.44 1.38 1.44 1.36 1.33 1.43 1.42 1.37 1.33 1.20 1.29 1.35 1.32 1.36 1.39 1.41 1.44 1.39 1.49 1.46
1.75 1.76 1.64 1.60 1.47 1.41 1.42 1.71 1.98 1.97 2.12 2.06 1.90 1.90 1.94 1.94 1.98 1.82 1.71 1.68 1.60 1.54 1.48 1.40 1.35 1.31 1.39 1.32 1.21 1.20 1.21 1.20 1.12 1.02 1.17 1.32 1.32 1.45 1.46 1.44 1.46 1.50 1.45
1.85 1.85 1.78 1.83 1.70 1.53 1.46 1.48 1.72 2.01 2.16 2.14 2.05 2.03 2.08 2.04 2.02 1.97 1.94 1.82 1.81 1.73 1.76 1.70 1.61 1.58 1.53 1.54 1.56 1.42 1.41 1.52 1.56 1.38 1.24 1.32 1.44 1.54 1.48 1.55 1.53 1.46 1.43
2.08 2.14 2.07 1.98 1.87 1.86 1.72 1.50 1.53 1.66 1.96 2.11 2.10 2.08 2.05 2.07 2.08 2.06 1.96 1.94 1.86 1.83 1.76 1.76 1.80 1.79 1.74 1.71 1.69 1.67 1.56 1.60 1.52 1.42 1.44 1.43 1.46 1.67 1.61 1.37 1.32 1.32 1.26
1.89 1.97 2.10 2.24 2.10 2.02 1.91 1.88 1.69 1.49 1.57 1.84 1.98 2.02 2.07 2.06 2.23 2.16 2.15 2.06 2.00 1.90 1.89 1.87 1.91 1.96 1.93 1.90 1.79 1.74 1.74 1.63 1.64 1.54 1.48 1.48 1.45 1.52 1.24 1.40 1.34 1.30 1.38
1.84 1.97 2.12 2.17 2.19 2.26 2.12 2.12 2.11 1.72 1.54 1.62 1.69 1.84 1.90 2.03 1.97 2.09 2.13 2.18 2.10 1.89 1.94 1.95 1.83 1.90 1.87 1.85 1.82 1.74 1.69 1.56 1.51 1.49 1.46 1.41 1.43 1.51 1.53 1.50 1.47 1.42 1.30
1.79 1.90 1.97 2.09 2.09 2.14 2.13 2.24 2.18 1.99 1.76 1.71 1.82 1.81 1.80 1.80 1.79 1.81 1.87 1.84 1.86 1.89 1.96 2.04 2.02 1.97 1.90 1.83 1.85 1.85 1.88 1.86 1.83 1.80 1.68 1.66 1.65 1.80 1.81 1.71 1.69 1.62 1.54
1.76 1.83 1.88 2.01 2.05 2.09 2.07 2.11 2.08 2.06 1.93 1.79 1.72 1.67 1.61 1.61 1.71 1.73 1.77 1.88 1.89 1.92 1.87 1.90 1.88 1.80 1.73 1.72 1.71 1.77 1.86 1.87 1.90 1.96 1.97 1.93 1.90 1.89 1.82 1.78 1.76 1.77 1.79
1.67 1.73 1.79 1.83 1.81 1.86 1.92 1.98 1.97 1.96 1.90 1.86 1.87 1.76 1.69 1.63 1.63 1.67 1.81 1.87 1.80 1.76 1.71 1.70 1.68 1.60 1.52 1.50 1.61 1.62 1.64 1.74 1.89 1.74 1.71 1.74 1.79 1.83 1.84 1.78 1.70 1.72 1.66
1.63 1.68 1.75 1.78 1.76 1.81 1.78 1.89 1.85 1.89 1.84 1.81 1.81 1.78 1.69 1.60 1.59 1.62 1.64 1.68 1.73 1.74 1.71 1.57 1.49 1.46 1.44 1.41 1.44 1.46 1.38 1.39 1.41 1.54 1.67 1.77 1.86 1.93 1.94 1.97 1.95 1.76 1.70
1.72 1.77 1.76 1.76 1.73 1.70 1.73 1.80 1.76 1.71 1.71 1.71 1.68 1.76 1.69 1.64 1.57 1.54 1.54 1.60 1.58 1.57 1.63 1.60 1.58 1.40 1.38 1.36 1.37 1.36 1.22 1.27 1.41 1.53 1.52 1.63 1.71 1.77 1.79 1.78 1.81 1.73 1.54
1.68 1.70 1.69 1.67 1.67 1.68 1.63 1.58 1.54 1.55 1.55 1.49 1.44 1.46 1.48 1.45 1.44 1.43 1.45 1.40 1.35 1.45 1.47 1.49 1.46 1.32 1.26 1.23 1.31 1.27 1.26 1.30 1.39 1.41 1.39 1.38 1.38 1.32 1.32 1.38 1.46 1.53 1.51
1.52 1.50 1.54 1.60 1.58 1.61 1.56 1.45 1.35 1.36 1.31 1.26 1.25 1.19 1.20 1.17 1.11 0.98 0.87 0.94 1.09 1.23 1.21 1.06 1.09 1.05 1.01 1.08 1.09 1.05 1.01 1.14 1.24 1.17 1.20 1.22 1.22 1.22 1.17 1.04 1.01 1.05 1.00
1.29 1.31 1.33 1.32 1.33 1.35 1.34 1.26 1.12 1.05 1.02 1.00 0.96 0.93 0.92 0.84 0.74 0.66 0.59 0.59 0.68 0.77 0.88 0.93 0.83 0.79 0.87 0.85 0.88 0.88 0.90 0.91 0.83 0.86 0.83 0.83 0.89 0.92 0.99 1.02 0.93 0.87 0.79
1.07 1.03 1.03 1.02 1.04 0.89 0.83 0.82 0.79 0.78 0.74 0.77 0.72 0.69 0.64 0.57 0.50 0.48 0.45 0.42 0.43 0.46 0.49 0.53 0.51 0.56 0.62 0.62 0.63 0.68 0.74 0.70 0.68 0.64 0.64 0.70 0.70 0.68 0.67 0.73 0.71 0.72 0.71
0.87 0.85 0.83 0.81 0.77 0.73 0.68 0.64 0.64 0.63 0.66 0.66 0.63 0.55 0.50 0.46 0.44 0.43 0.43 0.41 0.41 0.44 0.45 0.45 0.44 0.43 0.42 0.43 0.45 0.45 0.48 0.48 0.50 0.51 0.54 0.56 0.57 0.57 0.58 0.57 0.59 0.56 0.56
0.73 0.71 0.66 0.65 0.63 0.59 0.52 0.48 0.43 0.44 0.45 0.44 0.43 0.44 0.43 0.40 0.40 0.41 0.40 0.40 0.42 0.45 0.45 0.43 0.42 0.42 0.41 0.41 0.42 0.42 0.41 0.44 0.47 0.47 0.44 0.44 0.48 0.52 0.51 0.49 0.49 0.51 0.50
0.72 0.64 0.62 0.62 0.59 0.58 0.56 0.52 0.46 0.45 0.44 0.40 0.44 0.43 0.42 0.41 0.42 0.42 0.42 0.43 0.43 0.41 0.40 0.40 0.39 0.40 0.41 0.41 0.42 0.42 0.43 0.44 0.42 0.42 0.44 0.45 0.46 0.44 0.43 0.43 0.44 0.45 0.44
0.70 0.61 0.65 0.63 0.61 0.58 0.56 0.53 0.52 0.50 0.50 0.49 0.45 0.44 0.42 0.42 0.42 0.42 0.42 0.42 0.39 0.39 0.39 0.39 0.38 0.38 0.39 0.40 0.41 0.40 0.41 0.40 0.40 0.40 0.39 0.40 0.41 0.42 0.41 0.41 0.41 0.40 0.40
0.77 0.77 0.70 0.63 0.59 0.57 0.56 0.56 0.56 0.57 0.55 0.52 0.49 0.48 0.51 0.47 0.47 0.45 0.45 0.43 0.42 0.42 0.42 0.42 0.41 0.41 0.40 0.40 0.39 0.39 0.38 0.38 0.38 0.38 0.38 0.39 0.39 0.39 0.37 0.38 0.38 0.37 0.37
0.56 0.55 0.55 0.59 0.57 0.57 0.54 0.53 0.52 0.50 0.48 0.49 0.51 0.44 0.41 0.46 0.44 0.43 0.42 0.42 0.41 0.40 0.41 0.40 0.40 0.39 0.38 0.39 0.38 0.37 0.36 0.36 0.37 0.37 0.37 0.38 0.38 0.36 0.37 0.37 0.37 0.37 0.37
0.49 0.48 0.44 0.48 0.51 0.51 0.50 0.51 0.50 0.49 0.50 0.47 0.46 0.42 0.37 0.42 0.42 0.42 0.43 0.42 0.42 0.42 0.41 0.40 0.39 0.39 0.39 0.39 0.37 0.36 0.36 0.36 0.36 0.37 0.37 0.37 0.37 0.37 0.37 0.37 0.36 0.36 0.36
0.57 0.55 0.52 0.49 0.50 0.51 0.50 0.50 0.49 0.50 0.50 0.51 0.50 0.50 0.48 0.47 0.45 0.46 0.45 0.46 0.46 0.46 0.47 0.47 0.45 0.43 0.44 0.43 0.41 0.40 0.38 0.37 0.38 0.39 0.37 0.37 0.37 0.37 0.37 0.36 0.37 0.37 0.37
0.69 0.66 0.64 0.62 0.59 0.58 0.57 0.55 0.55 0.55 0.55 0.56 0.57 0.56 0.55 0.55 0.53 0.52 0.51 0.50 0.49 0.49 0.49 0.48 0.47 0.45 0.45 0.45 0.45 0.44 0.43 0.43 0.42 0.40 0.39 0.38 0.37 0.37 0.38 0.38 0.38 0.39 0.40
0.77 0.74 0.73 0.71 0.69 0.67 0.66 0.64 0.62 0.61 0.61 0.59 0.58 0.59 0.60 0.59 0.58 0.56 0.54 0.53 0.52 0.51 0.51 0.50 0.50 0.48 0.46 0.45 0.45 0.45 0.44 0.42 0.41 0.41 0.41 0.40 0.39 0.39 0.40 0.40 0.41 0.42 0.44
0.83 0.81 0.78 0.76 0.75 0.74 0.71 0.70 0.67 0.65 0.64 0.64 0.64 0.64 0.62 0.60 0.61 0.60 0.59 0.56 0.53 0.52 0.52 0.53 0.51 0.50 0.48 0.45 0.45 0.42 0.40 0.39 0.39 0.40 0.41 0.41 0.41 0.42 0.43 0.43 0.45 0.47 0.49

GFSGL_prec_pwat_114.txt.gz
Precipitable_Water
1.37 1.26 1.28 1.26 1.42 1.68 1.71 1.83 1.93 1.98 1.87 2.01 1.86 1.77 1.70 1.64 1.59 1.53 1.56 1.78 1.58 1.50 1.46 1.51 1.49 1.40 1.28 1.37 1.37 1.37 1.34 1.29 1.09 1.14 1.25 1.27 1.22 1.30 1.45 1.53 1.55 1.46 1.52
1.41 1.37 1.36 1.25 1.30 1.32 1.39 1.51 1.87 2.02 2.11 2.00 1.94 1.71 1.80 1.83 1.89 1.77 1.57 1.66 1.58 1.41 1.35 1.34 1.21 1.29 1.34 1.42 1.30 1.32 1.43 1.39 1.38 1.33 1.39 1.31 1.34 1.51 1.73 1.58 1.58 1.54 1.43
1.91 1.78 1.61 1.73 1.50 1.40 1.34 1.34 1.41 1.74 1.92 2.05 2.06 1.93 1.78 1.88 1.92 1.95 1.82 1.73 1.76 1.75 1.65 1.60 1.60 1.58 1.47 1.49 1.44 1.51 1.47 1.43 1.43 1.36 1.25 1.49 1.52 1.86 1.68 1.78 1.50 1.50 1.44
1.87 1.80 1.82 1.87 1.81 1.93 1.73 1.66 1.51 1.47 1.61 2.00 2.10 2.07 2.00 2.03 2.13 2.03 1.99 1.92 1.86 1.72 1.77 1.68 1.61 1.67 1.69 1.68 1.76 1.65 1.68 1.62 1.54 1.51 1.61 1.61 1.60 1.72 1.64 1.51 1.31 1.51 1.49
2.08 1.99 1.99 2.05 2.05 2.13 2.15 1.94 1.80 1.63 1.46 1.60 1.84 2.04 2.06 2.03 1.96 2.17 2.13 2.11 2.01 1.95 1.93 1.91 1.97 2.02 2.08 1.91 1.79 1.73 1.66 1.55 1.51 1.46 1.36 1.29 1.32 1.35 1.38 1.51 1.46 1.51 1.53
1.88 1.83 1.92 1.95 2.00 2.10 2.16 2.20 2.23 1.96 1.90 1.61 1.65 1.83 1.80 1.91 1.90 2.02 2.15 2.06 2.29 2.21 1.94 2.00 2.03 2.04 1.89 1.81 1.88 1.84 1.83 1.69 1.60 1.57 1.55 1.50 1.54 1.61 1.69 1.69 1.65 1.56 1.39
1.88 1.94 1.85 1.91 1.92 2.02 2.12 2.22 2.34 2.19 2.19 2.09 1.85 1.69 1.64 1.71 1.76 1.83 1.91 1.91 1.91 1.99 1.92 1.88 1.88 1.93 1.88 1.87 1.84 1.84 1.87 1.92 1.99 1.87 1.69 1.71 1.79 1.86 1.83 1.65 1.63 1.65 1.63
1.86 1.89 1.88 1.84 1.91 2.05 2.11 2.16 2.16 2.21 2.17 2.15 2.00 1.79 1.64 1.58 1.65 1.69 1.81 1.87 1.81 1.78 1.77 1.76 1.69 1.67 1.65 1.69 1.74 1.74 1.76 1.83 1.85 1.83 1.72 1.70 1.71 1.76 1.80 1.80 1.77 1.77 1.80
1.91 1.88 1.78 1.76 1.80 1.86 1.97 2.10 2.15 2.12 2.09 2.02 1.93 1.80 1.73 1.62 1.66 1.69 1.77 1.83 1.77 1.72 1.69 1.68 1.62 1.51 1.50 1.52 1.62 1.56 1.53 1.56 1.59 1.61 1.67 1.78 1.85 1.86 1.86 1.80 1.70 1.64 1.58
1.82 1.82 1.77 1.78 1.74 1.72 1.69 1.76 1.92 2.00 1.93 1.88 1.79 1.72 1.64 1.58 1.66 1.69 1.72 1.83 1.77 1.72 1.62 1.55 1.50 1.44 1.41 1.37 1.36 1.37 1.23 1.23 1.32 1.47 1.59 1.79 1.77 1.84 1.73 1.65 1.57 1.47 1.47
1.78 1.76 1.72 1.74 1.75 1.76 1.76 1.75 1.69 1.67 1.78 1.79 1.75 1.73 1.71 1.70 1.63 1.64 1.69 1.69 1.67 1.58 1.55 1.52 1.52 1.39 1.36 1.39 1.41 1.39 1.25 1.24 1.31 1.43 1.51 1.55 1.53 1.54 1.50 1.45 1.43 1.41 1.16
1.69 1.68 1.70 1.73 1.78 1.79 1.74 1.69 1.65 1.57 1.54 1.55 1.56 1.60 1.63 1.68 1.53 1.47 1.49 1.53 1.58 1.51 1.43 1.39 1.30 1.34 1.35 1.27 1.22 1.13 1.08 1.23 1.24 1.22 1.19 1.22 1.22 1.21 1.16 1.15 1.20 1.24 1.17
1.52 1.55 1.63 1.71 1.74 1.76 1.73 1.67 1.58 1.50 1.41 1.39 1.40 1.34 1.33 1.34 1.28 1.22 1.19 1.17 1.12 1.12 1.19 1.19 1.26 1.20 1.17 1.20 1.14 1.15 1.10 1.11 0.99 0.94 0.88 0.87 0.92 0.92 0.92 0.89 0.89 0.89 0.90
1.37 1.39 1.48 1.52 1.54 1.57 1.58 1.59 1.51 1.43 1.33 1.29 1.16 1.13 1.07 1.01 0.96 0.90 0.82 0.73 0.65 0.62 0.61 0.72 0.83 0.95 0.88 0.84 0.82 0.81 0.80 0.78 0.73 0.73 0.74 0.71 0.72 0.71 0.69 0.68 0.62 0.62 0.60
1.20 1.25 1.27 1.32 1.36 1.34 1.35 1.38 1.33 1.30 1.20 1.05 0.93 0.86 0.75 0.62 0.51 0.48 0.47 0.47 0.49 0.51 0.56 0.60 0.55 0.54 0.51 0.49 0.46 0.51 0.52 0.50 0.45 0.48 0.48 0.50 0.53 0.56 0.57 0.61 0.60 0.56 0.52
1.13 1.22 1.24 1.23 1.16 1.15 1.11 1.02 0.98 1.00 0.91 0.82 0.74 0.63 0.61 0.53 0.45 0.45 0.45 0.46 0.48 0.52 0.55 0.54 0.48 0.45 0.44 0.46 0.46 0.45 0.46 0.44 0.46 0.43 0.41 0.41 0.40 0.42 0.43 0.45 0.47 0.45 0.44
0.89 0.92 0.93 0.94 0.92 0.83 0.77 0.73 0.62 0.63 0.64 0.63 0.59 0.52 0.46 0.41 0.40 0.41 0.43 0.45 0.50 0.54 0.53 0.49 0.47 0.45 0.45 0.45 0.44 0.45 0.44 0.46 0.46 0.43 0.44 0.45 0.45 0.43 0.41 0.41 0.41 0.40 0.38
0.74 0.74 0.75 0.81 0.84 0.77 0.69 0.62 0.52 0.46 0.42 0.40 0.42 0.41 0.40 0.41 0.43 0.45 0.48 0.52 0.50 0.51 0.51 0.49 0.48 0.47 0.46 0.45 0.44 0.42 0.42 0.43 0.41 0.42 0.41 0.41 0.40 0.39 0.38 0.37 0.38 0.38 0.39
0.82 0.76 0.73 0.65 0.64 0.67 0.67 0.65 0.63 0.66 0.58 0.47 0.41 0.42 0.44 0.44 0.44 0.47 0.52 0.53 0.51 0.51 0.52 0.50 0.47 0.46 0.46 0.45 0.43 0.41 0.40 0.39 0.40 0.39 0.39 0.38 0.38 0.36 0.34 0.34 0.34 0.33 0.33
0.89 0.83 0.83 0.83 0.75 0.69 0.63 0.58 0.59 0.60 0.61 0.59 0.59 0.58 0.51 0.50 0.52 0.53 0.51 0.51 0.51 0.50 0.51 0.49 0.47 0.45 0.44 0.44 0.43 0.42 0.41 0.41 0.40 0.39 0.38 0.37 0.37 0.36 0.34 0.34 0.34 0.34 0.34
0.70 0.69 0.68 0.70 0.65 0.66 0.68 0.68 0.70 0.70 0.68 0.67 0.64 0.57 0.53 0.55 0.55 0.53 0.53 0.54 0.51 0.49 0.48 0.46 0.46 0.45 0.45 0.44 0.42 0.39 0.38 0.37 0.37 0.37 0.36 0.37 0.36 0.34 0.35 0.35 0.35 0.35 0.34
0.60 0.57 0.53 0.53 0.52 0.51 0.53 0.53 0.55 0.56 0.58 0.60 0.59 0.54 0.45 0.50 0.54 0.50 0.49 0.47 0.50 0.49 0.49 0.47 0.46 0.46 0.45 0.44 0.41 0.39 0.37 0.37 0.37 0.37 0.36 0.36 0.36 0.35 0.35 0.35 0.34 0.34 0.35
0.55 0.53 0.48 0.44 0.48 0.50 0.48 0.48 0.49 0.49 0.50 0.52 0.54 0.52 0.51 0.47 0.53 0.54 0.54 0.53 0.53 0.52 0.54 0.52 0.51 0.49 0.49 0.48 0.47 0.44 0.40 0.39 0.40 0.39 0.37 0.36 0.36 0.35 0.36 0.35 0.36 0.35 0.36
0.67 0.64 0.61 0.60 0.57 0.55 0.56 0.54 0.53 0.53 0.53 0.54 0.56 0.59 0.59 0.58 0.57 0.57 0.57 0.57 0.58 0.57 0.56 0.56 0.54 0.52 0.51 0.50 0.50 0.49 0.47 0.46 0.44 0.41 0.39 0.37 0.35 0.36 0.37 0.37 0.37 0.37 0.37
0.72 0.71 0.70 0.69 0.68 0.68 0.67 0.65 0.65 0.63 0.62 0.60 0.62 0.64 0.66 0.66 0.65 0.63 0.62 0.59 0.58 0.58 0.58 0.57 0.56 0.55 0.52 0.51 0.50 0.49 0.46 0.44 0.41 0.39 0.38 0.37 0.36 0.37 0.39 0.40 0.40 0.40 0.42
0.74 0.73 0.76 0.77 0.73 0.71 0.70 0.70 0.70 0.70 0.69 0.71 0.69 0.67 0.66 0.66 0.66 0.65 0.64 0.63 0.62 0.61 0.59 0.59 0.57 0.57 0.56 0.54 0.52 0.48 0.45 0.42 0.38 0.38 0.37 0.36 0.36 0.40 0.43 0.43 0.44 0.45 0.46

GFSGL_prec_pwat_117.txt.gz
Precipitable_Water
1.19 1.20 1.25 1.31 1.57 1.72 1.79 1.91 1.90 1.88 1.85 1.77 1.74 1.67 1.68 1.71 1.70 1.58 1.54 1.52 1.62 1.51 1.49 1.43 1.47 1.48 1.30 1.38 1.46 1.43 1.38 1.27 1.03 1.15 1.23 1.28 1.39 1.40 1.54 1.83 1.73 1.63 1.56
1.23 1.20 1.18 1.28 1.31 1.44 1.54 1.60 1.73 1.84 1.88 1.83 1.91 1.78 1.72 1.72 1.75 1.68 1.57 1.58 1.61 1.56 1.40 1.35 1.33 1.30 1.23 1.36 1.27 1.21 1.27 1.36 1.24 1.14 1.21 1.28 1.41 1.65 1.81 1.84 1.72 1.68 1.59
1.35 1.31 1.34 1.29 1.23 1.24 1.29 1.34 1.36 1.48 1.85 1.95 1.91 1.94 1.77 1.76 1.80 1.88 1.88 1.73 1.73 1.77 1.75 1.59 1.58 1.60 1.56 1.50 1.51 1.51 1.56 1.56 1.47 1.37 1.30 1.67 1.65 1.69 1.63 1.66 1.56 1.41 1.48
1.61 1.77 1.76 1.72 1.77 1.77 1.70 1.54 1.47 1.46 1.45 1.70 1.95 2.04 2.05 1.99 2.00 2.08 2.00 1.93 1.93 1.90 1.91 1.84 1.79 1.64 1.70 1.68 1.68 1.79 1.72 1.63 1.61 1.48 1.48 1.49 1.50 1.54 1.55 1.43 1.32 1.50 1.42
1.78 1.84 2.00 1.99 1.95 2.00 1.94 2.04 2.03 1.81 1.65 1.45 1.71 2.01 2.13 2.08 2.04 2.05 2.09 2.03 2.02 1.93 1.99 2.14 2.04 2.00 1.92 2.07 1.84 1.68 1.60 1.50 1.47 1.39 1.34 1.40 1.47 1.48 1.46 1.59 1.52 1.52 1.55
2.00 2.08 2.12 2.11 2.10 2.07 2.10 2.12 2.21 2.08 2.08 1.84 1.66 1.67 1.78 1.93 2.05 2.03 1.98 1.91 1.89 1.83 1.84 1.84 2.04 2.06 2.03 1.92 1.82 1.81 1.84 1.69 1.59 1.59 1.58 1.55 1.63 1.66 1.70 1.65 1.56 1.48 1.40
1.99 1.99 1.97 1.94 1.88 1.85 1.96 2.02 2.04 2.10 2.20 2.20 2.00 1.77 1.63 1.64 1.76 1.77 1.91 1.93 1.97 1.93 1.90 2.03 1.92 1.84 1.86 1.89 1.93 1.93 1.90 1.87 1.87 1.77 1.61 1.55 1.49 1.55 1.61 1.57 1.60 1.62 1.61
1.87 1.85 1.86 1.89 1.84 1.86 1.86 1.89 2.00 2.10 2.21 2.15 2.12 2.00 1.87 1.81 1.71 1.62 1.72 1.82 1.83 1.89 1.90 1.82 1.70 1.60 1.61 1.68 1.66 1.65 1.67 1.67 1.65 1.68 1.63 1.65 1.71 1.76 1.75 1.72 1.68 1.66 1.71
1.80 1.83 1.86 1.88 1.81 1.72 1.81 2.00 2.09 2.00 2.09 2.06 1.98 1.84 1.83 1.82 1.81 1.84 1.79 1.75 1.68 1.69 1.70 1.63 1.54 1.47 1.45 1.52 1.45 1.31 1.27 1.26 1.45 1.57 1.63 1.79 1.74 1.66 1.62 1.55 1.45 1.37 1.27
1.84 1.93 1.95 1.87 1.73 1.67 1.66 1.73 1.92 2.08 2.05 1.99 1.88 1.79 1.74 1.70 1.79 1.91 1.94 1.80 1.61 1.57 1.57 1.50 1.49 1.45 1.41 1.38 1.35 1.28 1.18 1.24 1.38 1.48 1.61 1.63 1.64 1.50 1.51 1.48 1.46 1.28 1.19
1.83 1.89 1.82 1.85 1.75 1.71 1.70 1.70 1.63 1.65 1.62 1.68 1.68 1.70 1.65 1.63 1.62 1.68 1.79 1.77 1.72 1.67 1.62 1.55 1.46 1.38 1.34 1.35 1.36 1.30 1.31 1.40 1.41 1.39 1.38 1.35 1.33 1.31 1.32 1.28 1.18 1.03 0.90
1.73 1.76 1.80 1.82 1.74 1.73 1.69 1.69 1.68 1.57 1.47 1.43 1.43 1.46 1.56 1.62 1.62 1.61 1.58 1.61 1.64 1.58 1.50 1.46 1.40 1.36 1.36 1.39 1.36 1.32 1.27 1.24 1.19 1.13 1.08 1.06 1.02 0.97 0.92 0.82 0.80 0.84 0.90
1.60 1.66 1.72 1.72 1.70 1.71 1.66 1.65 1.63 1.62 1.50 1.38 1.37 1.31 1.30 1.34 1.40 1.50 1.45 1.41 1.46 1.41 1.34 1.29 1.30 1.24 1.27 1.17 1.18 1.15 1.14 1.05 0.95 0.77 0.73 0.72 0.75 0.77 0.73 0.69 0.68 0.63 0.63
1.42 1.46 1.54 1.54 1.58 1.61 1.61 1.59 1.55 1.49 1.46 1.39 1.26 1.23 1.25 1.22 1.13 1.13 1.11 1.04 0.94 0.83 0.78 0.75 0.71 0.71 0.78 0.82 0.77 0.71 0.66 0.60 0.54 0.50 0.50 0.52 0.54 0.53 0.50 0.52 0.49 0.48 0.47
1.28 1.32 1.34 1.33 1.35 1.38 1.44 1.47 1.46 1.44 1.43 1.43 1.35 1.19 1.00 0.86 0.73 0.73 0.68 0.61 0.57 0.59 0.63 0.61 0.60 0.60 0.56 0.52 0.49 0.48 0.48 0.47 0.42 0.43 0.42 0.42 0.41 0.39 0.39 0.42 0.40 0.39 0.36
1.12 1.14 1.19 1.18 1.25 1.27 1.25 1.29 1.33 1.34 1.35 1.33 1.23 1.03 0.83 0.69 0.56 0.48 0.47 0.49 0.53 0.58 0.57 0.54 0.51 0.48 0.48 0.48 0.47 0.47 0.46 0.43 0.42 0.42 0.42 0.41 0.39 0.39 0.39 0.41 0.41 0.38 0.35
1.06 1.12 1.13 1.11 1.05 0.96 1.03 1.03 1.02 1.05 1.12 1.08 0.97 0.83 0.65 0.55 0.53 0.53 0.53 0.52 0.53 0.54 0.49 0.49 0.48 0.49 0.48 0.48 0.48 0.49 0.46 0.47 0.46 0.43 0.40 0.40 0.40 0.39 0.36 0.35 0.35 0.34 0.32
0.83 0.88 0.92 0.93 0.85 0.79 0.66 0.64 0.71 0.69 0.67 0.67 0.65 0.57 0.51 0.50 0.50 0.52 0.54 0.57 0.54 0.55 0.51 0.49 0.49 0.51 0.50 0.49 0.49 0.47 0.45 0.44 0.43 0.41 0.40 0.39 0.37 0.35 0.33 0.32 0.33 0.32 0.31
0.81 0.79 0.84 0.86 0.83 0.74 0.72 0.74 0.69 0.67 0.59 0.47 0.46 0.47 0.45 0.45 0.47 0.50 0.53 0.53 0.49 0.50 0.50 0.50 0.51 0.50 0.50 0.50 0.49 0.48 0.47 0.44 0.42 0.40 0.39 0.37 0.35 0.34 0.33 0.33 0.34 0.34 0.34
0.85 0.84 0.82 0.83 0.82 0.81 0.77 0.71 0.68 0.64 0.59 0.57 0.50 0.45 0.50 0.52 0.48 0.51 0.52 0.53 0.52 0.53 0.54 0.52 0.52 0.51 0.49 0.48 0.46 0.45 0.43 0.42 0.40 0.39 0.38 0.37 0.36 0.36 0.34 0.35 0.35 0.33 0.33
0.73 0.73 0.74 0.76 0.74 0.73 0.74 0.71 0.72 0.77 0.75 0.74 0.72 0.70 0.64 0.63 0.62 0.64 0.59 0.57 0.57 0.57 0.57 0.55 0.52 0.50 0.49 0.49 0.46 0.44 0.42 0.41 0.40 0.38 0.37 0.37 0.36 0.34 0.35 0.35 0.34 0.34 0.34
0.64 0.64 0.63 0.60 0.59 0.60 0.62 0.59 0.59 0.62 0.66 0.66 0.63 0.63 0.60 0.58 0.65 0.66 0.63 0.61 0.59 0.59 0.57 0.54 0.51 0.50 0.49 0.48 0.47 0.44 0.42 0.41 0.40 0.38 0.37 0.36 0.35 0.35 0.34 0.34 0.35 0.35 0.35
0.60 0.54 0.52 0.49 0.50 0.51 0.52 0.53 0.51 0.50 0.51 0.53 0.51 0.49 0.47 0.46 0.46 0.50 0.51 0.54 0.55 0.55 0.55 0.56 0.56 0.57 0.57 0.55 0.53 0.50 0.47 0.45 0.44 0.42 0.38 0.36 0.35 0.34 0.35 0.36 0.37 0.36 0.35
0.66 0.64 0.62 0.59 0.51 0.53 0.54 0.52 0.50 0.51 0.51 0.52 0.52 0.51 0.51 0.51 0.48 0.54 0.55 0.58 0.59 0.60 0.61 0.60 0.59 0.57 0.57 0.55 0.54 0.52 0.51 0.49 0.47 0.43 0.39 0.36 0.34 0.34 0.35 0.37 0.37 0.38 0.39
0.69 0.69 0.68 0.67 0.65 0.65 0.64 0.66 0.65 0.62 0.59 0.58 0.59 0.61 0.61 0.62 0.63 0.64 0.65 0.65 0.64 0.62 0.61 0.61 0.61 0.60 0.59 0.56 0.55 0.55 0.52 0.50 0.50 0.47 0.42 0.38 0.34 0.33 0.36 0.39 0.41 0.41 0.42
0.67 0.66 0.67 0.68 0.68 0.68 0.70 0.69 0.68 0.70 0.70 0.68 0.67 0.65 0.66 0.70 0.70 0.69 0.70 0.69 0.67 0.65 0.64 0.64 0.64 0.62 0.62 0.62 0.61 0.57 0.55 0.54 0.52 0.49 0.47 0.41 0.33 0.32 0.37 0.41 0.43 0.44 0.47

GFSGL_prec_pwat_123.txt.gz
Precipitable_Water
1.28 1.37 1.54 1.69 1.76 1.76 1.78 1.83 1.86 1.83 1.85 1.94 1.84 1.83 1.65 1.54 1.56 1.58 1.49 1.45 1.38 1.38 1.41 1.34 1.30 1.31 1.23 1.25 1.31 1.34 1.32 1.28 1.05 1.20 1.30 1.39 1.46 1.47 1.68 1.83 1.79 1.82 1.68
1.59 1.37 1.26 1.43 1.59 1.77 1.84 1.82 1.92 1.94 1.89 1.82 1.88 1.78 1.68 1.60 1.61 1.61 1.58 1.54 1.42 1.39 1.44 1.43 1.40 1.42 1.37 1.41 1.37 1.29 1.23 1.26 1.16 1.07 1.24 1.34 1.43 1.62 1.66 1.64 1.60 1.68 1.60
1.81 1.56 1.38 1.27 1.31 1.44 1.62 1.76 1.83 1.79 1.81 1.85 1.87 1.84 1.79 1.78 1.68 1.75 1.70 1.63 1.60 1.57 1.64 1.56 1.48 1.44 1.34 1.40 1.34 1.26 1.29 1.34 1.41 1.35 1.32 1.47 1.51 1.64 1.57 1.55 1.53 1.62 1.70
1.85 1.76 1.45 1.25 1.21 1.27 1.32 1.44 1.62 1.68 1.59 1.66 1.82 1.89 1.94 1.99 1.90 1.83 1.84 1.81 1.78 1.75 1.78 1.76 1.78 1.78 1.77 1.66 1.63 1.59 1.58 1.55 1.53 1.46 1.40 1.42 1.53 1.56 1.55 1.52 1.50 1.68 1.66
1.88 1.83 1.61 1.37 1.31 1.33 1.28 1.33 1.39 1.39 1.43 1.44 1.42 1.64 1.89 1.91 2.02 1.94 1.94 1.92 1.94 1.91 1.87 1.88 1.92 1.96 1.94 1.93 1.82 1.81 1.77 1.63 1.61 1.54 1.51 1.55 1.53 1.49 1.51 1.63 1.56 1.65 1.71
1.89 1.92 1.87 1.60 1.53 1.50 1.47 1.60 1.70 1.78 1.76 1.80 1.66 1.56 1.43 1.67 1.89 2.00 2.09 2.02 2.11 1.97 1.93 1.95 1.95 2.09 2.07 2.06 2.05 2.01 1.91 1.71 1.65 1.61 1.56 1.49 1.52 1.57 1.62 1.59 1.56 1.47 1.40
1.97 2.07 1.97 1.89 1.84 1.89 1.98 1.99 1.88 1.97 2.11 2.05 1.98 2.05 1.96 1.69 1.63 1.83 2.02 2.08 2.06 2.05 2.01 1.89 1.82 1.90 1.96 1.98 1.96 1.93 1.93 1.88 1.85 1.76 1.61 1.59 1.60 1.70 1.70 1.60 1.53 1.45 1.36
1.96 1.95 1.98 1.97 1.96 2.02 1.99 1.97 1.86 1.89 1.91 1.94 1.96 2.03 2.11 2.10 2.00 1.78 1.85 2.01 1.97 1.98 1.93 1.80 1.76 1.78 1.84 1.86 1.78 1.77 1.73 1.70 1.67 1.64 1.57 1.53 1.57 1.62 1.60 1.55 1.44 1.39 1.50
1.92 1.88 1.92 1.97 1.92 1.96 1.90 1.87 1.90 1.89 1.89 1.83 1.85 1.90 1.94 2.02 2.08 1.96 1.89 1.78 1.76 1.79 1.81 1.74 1.72 1.73 1.70 1.64 1.61 1.58 1.56 1.53 1.55 1.50 1.47 1.45 1.47 1.48 1.46 1.38 1.22 1.10 0.96
2.06 1.98 1.92 1.92 2.01 1.98 1.93 1.91 1.89 1.80 1.74 1.79 1.94 1.93 1.95 2.04 2.14 2.07 1.96 1.85 1.77 1.76 1.71 1.66 1.63 1.60 1.57 1.52 1.48 1.50 1.44 1.44 1.44 1.43 1.47 1.49 1.48 1.48 1.39 1.24 1.15 0.95 0.78
2.05 2.04 2.06 2.07 2.03 1.93 1.95 1.88 1.80 1.68 1.64 1.71 1.89 1.90 1.95 2.01 2.06 2.03 1.92 1.88 1.84 1.74 1.67 1.64 1.62 1.61 1.54 1.51 1.50 1.46 1.45 1.49 1.46 1.47 1.48 1.44 1.41 1.31 1.25 1.18 1.00 0.86 0.72
2.06 1.97 2.05 2.01 1.98 1.81 1.80 1.80 1.76 1.64 1.58 1.55 1.56 1.54 1.60 1.73 1.88 1.93 1.88 1.87 1.82 1.66 1.64 1.66 1.61 1.61 1.56 1.52 1.49 1.45 1.40 1.40 1.32 1.27 1.27 1.21 1.14 1.06 0.96 0.83 0.68 0.62 0.58
1.85 1.90 1.88 1.83 1.83 1.90 1.82 1.73 1.70 1.63 1.48 1.47 1.42 1.40 1.36 1.41 1.49 1.60 1.61 1.63 1.62 1.62 1.66 1.62 1.60 1.56 1.59 1.54 1.46 1.45 1.37 1.33 1.25 1.13 1.08 0.97 0.88 0.75 0.55 0.47 0.50 0.46 0.44
1.65 1.69 1.71 1.72 1.72 1.74 1.73 1.76 1.72 1.60 1.52 1.48 1.45 1.42 1.41 1.38 1.36 1.37 1.41 1.45 1.45 1.47 1.51 1.37 1.35 1.35 1.28 1.16 1.01 0.90 0.94 0.94 0.79 0.64 0.53 0.51 0.51 0.46 0.42 0.43 0.39 0.40 0.37
1.49 1.50 1.51 1.55 1.56 1.55 1.59 1.59 1.59 1.63 1.61 1.52 1.47 1.39 1.26 1.22 1.28 1.32 1.29 1.29 1.32 1.32 1.28 1.19 1.08 0.94 0.79 0.67 0.60 0.59 0.57 0.55 0.49 0.48 0.46 0.45 0.44 0.43 0.42 0.43 0.41 0.39 0.36
1.33 1.36 1.37 1.37 1.39 1.41 1.40 1.38 1.45 1.47 1.55 1.55 1.44 1.36 1.28 1.13 1.09 1.01 1.00 1.08 1.15 1.10 1.00 0.88 0.78 0.69 0.58 0.52 0.50 0.49 0.49 0.48 0.47 0.46 0.43 0.41 0.39 0.38 0.38 0.40 0.40 0.38 0.36
1.23 1.28 1.29 1.28 1.26 1.30 1.27 1.30 1.29 1.31 1.34 1.36 1.36 1.32 1.22 1.12 1.06 0.92 0.91 0.94 0.93 0.86 0.73 0.65 0.59 0.54 0.51 0.49 0.47 0.45 0.44 0.46 0.46 0.43 0.41 0.40 0.40 0.39 0.39 0.39 0.39 0.39 0.37
1.08 1.11 1.08 1.06 1.01 0.99 0.99 1.03 1.11 1.14 1.11 1.13 1.09 1.01 0.95 0.90 0.88 0.89 0.91 0.89 0.85 0.76 0.65 0.60 0.58 0.57 0.56 0.53 0.51 0.49 0.48 0.48 0.46 0.44 0.43 0.43 0.43 0.42 0.41 0.40 0.40 0.39 0.38
0.88 0.91 0.95 0.93 0.89 0.79 0.75 0.68 0.73 0.80 0.79 0.77 0.76 0.77 0.82 0.85 0.90 0.94 0.99 1.00 0.86 0.77 0.72 0.66 0.67 0.62 0.56 0.53 0.50 0.49 0.48 0.45 0.43 0.42 0.41 0.41 0.41 0.41 0.41 0.41 0.41 0.40 0.40
0.77 0.78 0.82 0.85 0.90 0.80 0.73 0.64 0.62 0.61 0.60 0.57 0.54 0.55 0.57 0.58 0.58 0.59 0.62 0.68 0.70 0.65 0.61 0.57 0.57 0.58 0.54 0.50 0.47 0.48 0.47 0.46 0.46 0.45 0.45 0.45 0.45 0.44 0.44 0.43 0.42 0.40 0.41
0.80 0.77 0.79 0.83 0.86 0.85 0.80 0.76 0.73 0.70 0.66 0.60 0.54 0.48 0.50 0.54 0.59 0.62 0.62 0.61 0.60 0.62 0.65 0.69 0.68 0.63 0.59 0.56 0.55 0.54 0.53 0.52 0.52 0.50 0.47 0.45 0.43 0.40 0.42 0.43 0.44 0.44 0.44
0.70 0.66 0.65 0.64 0.67 0.68 0.72 0.74 0.70 0.68 0.68 0.65 0.63 0.63 0.62 0.63 0.64 0.63 0.63 0.66 0.70 0.69 0.70 0.70 0.67 0.66 0.65 0.63 0.61 0.56 0.52 0.48 0.48 0.46 0.44 0.44 0.43 0.41 0.41 0.42 0.43 0.43 0.44
0.64 0.59 0.57 0.55 0.56 0.56 0.58 0.59 0.58 0.60 0.60 0.62 0.62 0.61 0.59 0.58 0.61 0.64 0.63 0.63 0.62 0.61 0.62 0.61 0.58 0.56 0.56 0.55 0.55 0.54 0.51 0.49 0.53 0.53 0.50 0.48 0.45 0.41 0.40 0.40 0.42 0.43 0.43
0.61 0.59 0.57 0.54 0.52 0.50 0.49 0.48 0.49 0.50 0.51 0.53 0.55 0.57 0.57 0.55 0.54 0.56 0.58 0.58 0.59 0.60 0.61 0.61 0.59 0.57 0.59 0.61 0.63 0.64 0.62 0.61 0.61 0.58 0.57 0.53 0.51 0.49 0.44 0.39 0.38 0.40 0.40
0.68 0.64 0.63 0.61 0.62 0.61 0.59 0.54 0.54 0.55 0.56 0.56 0.56 0.55 0.55 0.55 0.53 0.53 0.59 0.60 0.61 0.63 0.65 0.67 0.69 0.69 0.69 0.69 0.68 0.68 0.67 0.66 0.65 0.65 0.63 0.59 0.53 0.47 0.41 0.35 0.34 0.36 0.39
0.80 0.76 0.73 0.71 0.69 0.67 0.65 0.63 0.62 0.63 0.64 0.65 0.66 0.65 0.65 0.62 0.61 0.59 0.61 0.66 0.67 0.69 0.71 0.73 0.74 0.75 0.75 0.74 0.73 0.72 0.70 0.69 0.65 0.62 0.59 0.55 0.52 0.50 0.45 0.39 0.36 0.35 0.34